Location: Pilipovskiye Korichintsy
(49.1833°N, 27.4667°E)
Time: 22:44:50
(UTC+00:00)

Meteor 1-5 Rocket - Pass Details

Date: 14 July 2020
Orbit: 789 x 915 km, 81.2° (Epoch: 10 August)

Event Time Altitude Azimuth Distance (km) Brightness Sun altitude
Exits shadow 00:13:46 19° 188° (S) 1,931 5.5 -14.5°
Maximum altitude 00:17:57 86° 102° (ESE) 888 4.3 -14.2°
Drops below altitude 10° 00:23:52 10° 13° (NNE) 2,582 8.0 -13.7°
Sets 00:26:22 0° 13° (NNE) 3,540 9.0 -13.5°
